Location: Boncourt
(49.6160°N, 3.9448°E)
Time: 16:11:10
(UTC+00:00)

ATLAS CENTAUR R/B - Pass Details

Date: 09 February 2023
Orbit: 450 x 653 km, 64.7° (Epoch: 19 March)

Event Time Altitude Azimuth Distance (km) Brightness Sun altitude
Rises 18:37:47 0° 297° (WNW) 2,920 6.1 -17.4°
Reaches altitude 10° 18:41:41 10° 330° (NNW) 1,966 4.5 -18.0°
Maximum altitude 18:43:16 12° 351° (N) 1,836 4.1 -18.3°
Drops below altitude 10° 18:44:50 10° 13° (NNE) 1,922 3.9 -18.5°
Enters shadow 18:45:23 - 19° (NNE) 1,997 4.0 -18.6°
